Airfield :
LOGIN :

Register | Disclaimer

   EN    FR    IT 

 










Legend :    VFR   Marginal VFR   IFR   Intensive IFR   Very Intensive IFR
Visi :
Ceiling :
>= 8 km
>= 3000ft
5 to 8 km
1000 to 3000 ft
1500m to 5 km
500 to 1000 ft
800 to 1500m
200 to 500 ft
< 800m
< 200 ft
Symbols :   Thunderstorms  Fog  Heavy snow  Heavy precipitations  Wind > 20 kt
SIGMETs :     Misc.  Thunderstorms  Icing  Turbulence  Mountain Waves  Volcanic Ashes







- Airport Elevation : 479 ft
- IATA code : DOL
- Download approach charts


LFRG - Deauville

CURRENT METAR :
  • 150130Z AUTO 14007KT 100V180 CAVOK M03/M06 Q1021

EXPIRED METARs :
  • 150100Z AUTO 14008KT CAVOK M02/M06 Q1021
  • 150030Z AUTO 13008KT 100V180 CAVOK M02/M06 Q1021
  • 150000Z AUTO 13006KT 090V160 CAVOK M02/M05 Q1022
  • 142330Z AUTO 15008KT 110V170 CAVOK M02/M05 Q1022
  • 142300Z AUTO 14007KT 100V170 CAVOK M02/M05 Q1022

Expired Forecast.
ATIS : +33 2 31 65 65 36
No reported NOTAMs for that airfield.



MET'MAP, your aeronautical weather chart ! - Copyright ORBIFLY December 2007 - Disclaimer

ORBIFLY MET'MAP TEAM :

Programming & Development : Alexandra Zaïnal
Concept & Development : Baudouin d'Aumeries
Co-Development & Prog : Marc-Olivier Méhu
Technical & hardware support : Manuel Goepfert

Contact : metmap@orbifly.com




SOURCES & CREDITS :

   NOAA